Date,TemperatureHighF,TemperatureAvgF,TemperatureLowF,DewpointHighF,DewpointAvgF,DewpointLowF,HumidityHigh,HumidityAvg,HumidityLow,PressureMaxIn,PressureMinIn,WindSpeedMaxMPH,WindSpeedAvgMPH,GustSpeedMaxMPH,PrecipitationSumIn
2013-2-1,77.8,62.2,48.1,45.7,38.3,30.5,65,42,28,30.24,30.12,10,1,10,0.00
2013-2-2,72.7,61.6,51.5,46.8,40.0,33.9,51,45,35,30.24,30.12,8,0,8,0.00
2013-2-3,74.0,64.1,53.3,52.4,44.8,37.9,70,51,38,30.15,29.15,12,2,12,0.00
2013-2-4,74.9,61.4,43.9,50.4,44.6,36.8,82,56,38,30.12,30.00,12,2,12,0.00
2013-2-5,59.2,49.3,41.2,50.3,46.1,39.3,100,89,67,30.12,29.94,8,1,8,0.00
2013-2-6,65.0,55.5,46.8,49.3,46.2,42.3,91,72,48,30.12,30.00,13,2,13,0.00
2013-2-7,62.6,49.0,39.0,50.0,43.1,37.9,97,82,54,30.12,30.00,13,1,13,0.00
2013-2-8,50.1,43.9,37.6,45.6,40.9,36.9,100,90,74,30.00,29.88,8,1,8,0.62
2013-2-9,54.4,44.7,34.8,48.8,41.2,34.4,98,88,60,30.09,29.88,8,1,8,0.00
2013-2-10,59.7,47.1,36.6,48.6,38.9,34.9,95,74,52,30.12,30.00,11,1,11,0.00
2013-2-11,66.1,49.8,37.3,53.0,31.6,-3.4,95,57,8,30.21,30.00,10,2,10,0.00
2013-2-12,62.5,49.0,31.9,39.9,28.7,18.0,62,47,28,30.33,29.21,12,2,12,0.00
2013-2-13,70.8,55.1,35.6,43.3,33.7,25.6,67,46,26,30.24,30.12,11,2,11,0.04
2013-2-14,47.3,46.8,43.9,33.4,32.7,31.4,61,57,57,30.15,30.15,2,0,2,0.00
2013-2-15,68.5,68.1,67.0,-4.2,-4.5,-4.6,6,5,5,30.21,30.18,3,1,3,0.00
2013-2-16,78.6,62.5,52.2,32.3,11.9,-12.6,26,16,2,30.21,30.00,10,1,10,0.00
2013-2-17,54.5,50.5,46.2,16.6,7.4,-6.9,30,19,8,30.00,29.97,3,0,3,0.00
2013-2-18,65.2,53.3,45.7,47.0,43.8,40.6,88,72,47,30.09,29.94,17,2,17,0.00
2013-2-19,56.4,49.6,41.3,46.6,42.1,39.2,97,76,56,30.00,29.71,12,2,12,0.25
2013-2-20,56.7,40.9,31.5,42.7,35.9,31.5,100,85,45,29.91,29.65,11,2,11,0.05
2013-2-21,61.8,50.0,38.7,45.6,37.4,32.6,80,64,38,30.06,29.94,6,0,6,0.00
2013-2-22,66.6,52.0,37.3,46.5,35.2,29.6,79,55,32,30.18,30.06,10,1,10,0.00
2013-2-23,63.8,52.1,36.1,44.6,36.1,27.9,80,57,37,30.15,29.88,14,2,14,0.00
2013-2-24,57.3,51.4,43.1,29.2,1.2,-11.1,38,15,7,30.21,29.12,43,5,43,2.81
2013-2-25,69.3,58.5,37.6,30.2,6.7,-16.4,51,16,5,30.24,30.06,34,8,34,0.00
2013-2-26,46.2,41.7,37.4,28.7,25.1,23.1,56,52,50,30.12,30.00,20,1,20,0.00
2013-2-27,70.7,59.4,42.4,40.2,18.0,7.6,41,21,15,30.30,30.12,66,12,66,0.21
2013-2-28,78.6,62.1,44.6,60.0,17.4,-1.8,100,19,8,30.33,30.24,42,4,42,0.00